Date,TemperatureHighF,TemperatureAvgF,TemperatureLowF,DewpointHighF,DewpointAvgF,DewpointLowF,HumidityHigh,HumidityAvg,HumidityLow,PressureMaxIn,PressureMinIn,WindSpeedMaxMPH,WindSpeedAvgMPH,GustSpeedMaxMPH,PrecipitationSumIn
2013-6-3,70,67,63,51,50,49,64,54,46,29.96,29.94,8,6,13,0.00
2013-6-4,64,60,58,58,55,50,87,82,75,30.11,29.94,20,2,20,0.35
2013-6-5,66,62,59,62,59,53,94,89,78,30.00,29.87,21,2,21,0.97
2013-6-6,70,63,57,61,58,55,95,84,65,29.92,29.85,17,4,17,0.01
2013-6-7,69,62,57,57,56,55,93,82,61,29.95,29.87,12,2,12,0.00
2013-6-8,73,66,54,59,56,52,95,71,52,29.90,29.81,16,3,16,0.00
2013-6-9,71,67,61,63,60,56,89,77,67,29.81,29.67,25,7,25,0.00
2013-6-10,78,67,57,64,61,55,95,81,58,29.84,29.71,16,2,16,0.00
2013-6-11,87,74,62,70,66,59,92,76,53,29.86,29.71,16,2,16,0.00
2013-6-12,89,78,69,74,70,65,92,77,56,29.82,29.53,36,7,36,0.20
2013-6-13,81,74,64,66,61,54,91,66,40,29.98,29.70,24,6,24,0.00
2013-6-14,77,69,61,62,59,56,86,71,55,30.05,29.77,25,5,25,0.00
2013-6-15,79,73,66,72,67,62,89,82,71,29.95,29.77,25,5,25,0.25
2013-6-16,86,76,66,68,60,49,94,64,29,29.89,29.83,17,3,17,0.00
2013-6-17,90,77,61,62,58,54,84,55,32,29.90,29.80,17,4,20,0.00
2013-6-18,80,71,63,61,58,57,86,65,47,29.98,29.84,16,1,16,0.00
2013-6-19,84,73,61,62,58,53,80,61,43,30.06,29.94,20,4,20,0.00
2013-6-20,90,79,66,67,63,59,79,61,44,30.01,29.88,25,7,26,0.00
2013-6-21,85,77,65,73,69,62,93,76,66,30.02,29.79,40,9,40,0.99
2013-6-22,91,81,71,77,73,68,91,79,59,29.93,29.77,29,8,29,1.09
2013-6-23,85,76,69,73,69,64,89,79,54,29.95,29.75,27,6,27,0.22
2013-6-24,73,70,67,69,67,65,95,90,83,29.95,29.78,27,5,27,1.57
2013-6-25,88,77,68,76,71,64,94,83,63,29.81,29.65,23,4,23,0.11
2013-6-26,86,77,66,78,71,63,93,83,70,29.74,29.62,27,2,27,0.72
2013-6-27,85,77,69,73,67,63,88,73,55,29.81,29.73,24,5,24,0.00
2013-6-28,82,74,68,64,61,60,80,65,48,29.78,29.66,31,11,31,0.00
2013-6-29,74,68,64,67,62,59,92,84,70,29.82,29.64,26,8,26,0.06
2013-6-30,78,69,62,61,56,52,87,65,41,30.01,29.82,19,5,19,0.00